Lexington Weather

Lexington, Massachusetts, USA

41°F
1/23/2020 11:55am 
  • Lexington Conditions: Clear
  • Temperature: 41.2°F / 5.1°CWarmer 5.2°F than last hour.
  • Dew Point: 21.4°F 
  • Relative Humidity: 45%Decreased 10.0% since last hour.
  • Wind: Calm, 10-min avg: Calm, gust: None
  • Barometer: 30.31 inFalling 0.03  inHg/hr Falling Slowly
  • Visibility: 10 miles
  • Rain Today: 0.00 in
  •   

Regional Weather Roundup
for Boston / Norton, MA

        
000
ASUS41 KBOX 220000
RWRBOX

REGIONAL WEATHER ROUNDUP
NATIONAL WEATHER SERVICE BOSTON/NORTON MA
700 PM EST TUE JAN 21 2020

NOTE:  "FAIR" INDICATES FEW OR NO CLOUDS BELOW 12,000 FEET WITH NO 
SIGNIFICANT WEATHER AND/OR OBSTRUCTIONS TO VISIBILITY.

MAZALL-220100-
EASTERN MASSACHUSETTS
  
CITY           SKY/WX    TMP DP  RH WIND       PRES   REMARKS
BOSTON         FAIR      24   1  36 N3        30.42S                  
6HR MIN TEMP:  23; 6HR MAX TEMP:  28;                                

BEVERLY        FAIR      17   0  47 CALM      30.41S                  
LAWRENCE       FAIR      15   1  53 CALM      30.43S                  
BEDFORD        FAIR      13   1  59 CALM      30.41S                  
BLUE HILL        N/A     19   0  43 CALM      30.37R                  
NORWOOD        FAIR      15   5  64 CALM      30.43R                  
MARSHFIELD     NOT AVBL                                               
PLYMOUTH       FAIR      17   7  64 CALM      30.42R                  
TAUNTON        FAIR      13   6  74 CALM      30.42R                  
NEW BEDFORD    FAIR      18   6  59 CALM      30.42R                  
$$

MAZALL-220100-
CAPE COD AND THE ISLANDS
  
CITY           SKY/WX    TMP DP  RH WIND       PRES   REMARKS
FALMOUTH       CLOUDY    23   5  46 N3        30.42R                  
HYANNIS        NOT AVBL                                               
CHATHAM        FAIR      27  21  78 NW6       30.41R WCI  20          
PROVINCETOWN   FAIR      26  20  77 W8        30.42R WCI  18          
NANTUCKET      MOCLDY    28  22  78 N10       30.40R WCI  19          
MARTHAS VNYRD  FAIR      24   8  50 NW8       30.42R WCI  15          
$$
 
MAZALL-220100-
CENTRAL AND WESTERN MASSACHUSETTS
  
CITY           SKY/WX    TMP DP  RH WIND       PRES   REMARKS
WORCESTER      FAIR      17   0  47 NW6       30.35S WCI   9          
6HR MIN TEMP:  16; 6HR MAX TEMP:  24;                                

FITCHBURG      FAIR      14   2  58 CALM      30.41R                  
ORANGE         FAIR      11   1  64 CALM      30.40S                  
SPRINGFIELD    NOT AVBL                                               
WESTFIELD      FAIR      21  -1  38 NW7       30.42R WCI  12          
NORTH ADAMS    FAIR       6  -2  69 CALM      30.42R                  
PITTSFIELD     FAIR      14   0  53 NW3       30.35R                  
$$
 
RIZALL-220100-
RHODE ISLAND
  
CITY           SKY/WX    TMP DP  RH WIND       PRES   REMARKS
PROVIDENCE     FAIR      23   4  44 CALM      30.43R                  
6HR MIN TEMP:  23; 6HR MAX TEMP:  29;                                

NEWPORT        FAIR      21   4  47 NE3       30.41R                  
BLOCK ISLAND   FAIR      26   6  42 NW5       30.43R WCI  20          
SMITHFIELD     FAIR      20   3  48 NW5       30.40R WCI  13          
WESTERLY       FAIR      25   6  44 CALM      30.43R                  
$$
 
CTZALL-220100-
CONNECTICUT
  
CITY           SKY/WX    TMP DP  RH WIND       PRES   REMARKS
BRADLEY INTL   FAIR      22  -1  36 NE3       30.43R                  
6HR MIN TEMP:  21; 6HR MAX TEMP:  30;                                

HARTFORD       FAIR      25   1  35 N7        30.45R WCI  17          
BRIDGEPORT     FAIR      27   4  37 N6        30.45R WCI  20          
DANBURY        FAIR      19   6  57 SW3       30.44R                  
GROTON         NOT AVBL                                               
NEW HAVEN      FAIR      24   3  40 N5        30.45R WCI  18          
CHESTER        NOT AVBL                                               
MERIDEN        FAIR      20   4  50 CALM      30.45R                  
WILLIMANTIC    FAIR      18   4  54 N3        30.43R                  
OXFORD         FAIR      19   4  51 NW5       30.41R WCI  12          
$$

MEZ002-015-021-024-NHZ003-005-008-011-012-014-VTZ005-008-220100-
NORTHERN NEW ENGLAND
  
CITY           SKY/WX    TMP DP  RH WIND       PRES   REMARKS
PORTLAND ME    FAIR      19   8  62 SW5       30.40S WCI  12          
6HR MIN TEMP:  15; 6HR MAX TEMP:  23;                                

BANGOR ME      MOCLDY     9   1  70 CALM      30.38R                  
CONCORD NH     FAIR      11  -1  58 CALM      30.40R                  
MANCHESTER NH  FAIR      18   2  49 CALM      30.39R                  
NASHUA NH      FAIR      14   3  61 CALM      30.42R                  
PORTSMOUTH NH  CLEAR     20  -4  35 SW3       30.40R                  
JAFFREY NH     FAIR       5   0  79 CALM      30.35R                  
KEENE NH       FAIR       7   2  80 CALM      30.41R                  
BURLINGTON VT  CLOUDY    17   4  56 S9        30.39F WCI   6          
MT. WASHINGTON NOT AVBL                                               
$$

NYZ052-076-220100-
EASTERN NEW YORK
  
CITY           SKY/WX    TMP DP  RH WIND       PRES   REMARKS
ALBANY         FAIR      20   4  50 W3        30.45R                  
6HR MIN TEMP:  18; 6HR MAX TEMP:  26;                                

NEW YORK CITY  FAIR      32   9  38 NW14      30.45R WCI  22          
6HR MIN TEMP:  30; 6HR MAX TEMP:  33;                                

$$
 
ANZALL-220100-
MARINE OBSERVATIONS
  
STATION/POSITION TIME  TEMP    WIND        PRES    VSBY  WAVE
                       AIR SEA DIR/SP/G                  HT/PER
                 (UTC) (F)     (DEG/KT/KT) (MB)    (MI)  (FT/S)
BOSTON BUOY      2250   26 42  320/  4/  8 1029.4          2/11
BUZZARDS BAY     2300   27     360/  9/ 11 1030.3R
NANTUCKET SOUND  2300                      1029.6
MASS BAY-STELLWA 2304   26 41  340/  8/ 10 1028.1R  1 7/8  2/11
ISLE OF SHOALS   2300   25     240/  2/  5 1029.5R
S OF BLOCK IS    2330      45                N/A           2/11
$$

......................KEY.........................
  SKY/WX - SKY CONDITION/PRESENT WEATHER
  TMP    - TEMPERATURE IN FAHRENHEIT
  DWPT   - DEWPOINT IN FAHRENHEIT
  RH     - RELATIVE HUMIDITY IN PERCENT
  WIND   - DIRECTION AND SPEED IN MPH
  PRES   - MEAN SEA LEVEL PRESSURE IN INCHES OF HG
  WCI    - WIND CHILL INDEX
  VSB    - VISIBILITY IN MILES
  HX     - HEAT INDEX
  TC     - TEMPERATURE IN CELSIUS
  VRB    - VARIABLE WIND DIRECTION
  N/A    - NOT AVAILABLE
  
      

Other recent Regional Weather Roundups

Thu Jan 23, 11:10am

Thu Jan 23, 11:00am

Thu Jan 23, 10:10am

Thu Jan 23, 10:00am

Thu Jan 23, 9:10am

Thu Jan 23, 9:00am

Thu Jan 23, 8:10am

Thu Jan 23, 8:00am

Thu Jan 23, 7:10am

Thu Jan 23, 7:01am

Thu Jan 23, 6:10am

Thu Jan 23, 6:00am

Thu Jan 23, 5:10am

Thu Jan 23, 5:00am

Thu Jan 23, 4:10am

Thu Jan 23, 4:01am

Thu Jan 23, 3:10am

Thu Jan 23, 3:00am

Thu Jan 23, 2:10am

Thu Jan 23, 2:00am

Thu Jan 23, 1:10am

Thu Jan 23, 1:00am

Thu Jan 23, 12:10am

Thu Jan 23, 12:00am

Wed Jan 22, 11:10pm

Wed Jan 22, 11:01pm

Wed Jan 22, 10:10pm

Wed Jan 22, 10:00pm

Wed Jan 22, 9:10pm

Wed Jan 22, 9:00pm

Wed Jan 22, 8:10pm

Wed Jan 22, 8:01pm

Wed Jan 22, 7:10pm

Wed Jan 22, 7:00pm

Wed Jan 22, 6:10pm

Wed Jan 22, 6:01pm

Wed Jan 22, 5:10pm

Wed Jan 22, 5:00pm

Wed Jan 22, 4:10pm

Wed Jan 22, 4:00pm

Wed Jan 22, 3:10pm

Wed Jan 22, 3:00pm

Wed Jan 22, 2:10pm

Wed Jan 22, 2:00pm

Wed Jan 22, 1:10pm

Wed Jan 22, 1:00pm

Wed Jan 22, 12:10pm

Wed Jan 22, 12:00pm

Wed Jan 22, 11:10am

Wed Jan 22, 11:00am

Wed Jan 22, 10:10am

Wed Jan 22, 10:01am

Wed Jan 22, 9:10am

Wed Jan 22, 9:00am

Wed Jan 22, 8:10am

Wed Jan 22, 8:00am

Wed Jan 22, 7:10am

Wed Jan 22, 7:00am

Wed Jan 22, 6:10am

Wed Jan 22, 6:00am

Wed Jan 22, 5:10am

Wed Jan 22, 5:00am

Wed Jan 22, 4:10am

Wed Jan 22, 4:00am

Wed Jan 22, 3:10am

Wed Jan 22, 3:01am

Wed Jan 22, 2:10am

Wed Jan 22, 2:00am

Wed Jan 22, 1:10am

Wed Jan 22, 1:00am

Wed Jan 22, 12:10am

Wed Jan 22, 12:00am

Tue Jan 21, 11:10pm

Tue Jan 21, 11:00pm

Tue Jan 21, 10:10pm

Tue Jan 21, 10:00pm

Tue Jan 21, 9:10pm

Tue Jan 21, 9:01pm

Tue Jan 21, 8:10pm

Tue Jan 21, 8:00pm

Tue Jan 21, 7:10pm

Tue Jan 21, 6:10pm

Tue Jan 21, 6:01pm

Tue Jan 21, 5:10pm

Tue Jan 21, 5:00pm

Tue Jan 21, 4:10pm

Tue Jan 21, 4:00pm

Tue Jan 21, 3:10pm

Tue Jan 21, 3:01pm

Tue Jan 21, 2:10pm

Tue Jan 21, 2:00pm

Tue Jan 21, 1:10pm

Tue Jan 21, 1:00pm

Tue Jan 21, 12:10pm

Tue Jan 21, 12:00pm

Tue Jan 21, 11:10am

Tue Jan 21, 11:00am

Tue Jan 21, 10:10am

Tue Jan 21, 10:00am

Tue Jan 21, 9:10am

Tue Jan 21, 9:00am

Tue Jan 21, 8:10am

Tue Jan 21, 8:00am

Tue Jan 21, 7:10am

Tue Jan 21, 7:00am

Tue Jan 21, 6:10am

Tue Jan 21, 6:00am

Tue Jan 21, 5:10am

Tue Jan 21, 5:00am

Tue Jan 21, 4:10am

Tue Jan 21, 4:00am

Tue Jan 21, 3:10am

Tue Jan 21, 3:00am

Tue Jan 21, 2:10am

Tue Jan 21, 2:01am

Tue Jan 21, 1:10am

Tue Jan 21, 1:00am

Tue Jan 21, 12:10am

Tue Jan 21, 12:00am

Mon Jan 20, 11:10pm

Mon Jan 20, 11:00pm

Mon Jan 20, 10:10pm

Mon Jan 20, 10:00pm

Mon Jan 20, 9:10pm

Mon Jan 20, 9:00pm

Mon Jan 20, 8:10pm

Mon Jan 20, 8:00pm

Mon Jan 20, 7:10pm

Mon Jan 20, 7:00pm

Mon Jan 20, 6:10pm

Mon Jan 20, 6:00pm

Mon Jan 20, 5:10pm

Mon Jan 20, 5:00pm

Mon Jan 20, 4:10pm

Mon Jan 20, 4:01pm

Mon Jan 20, 3:10pm

Mon Jan 20, 3:00pm

Mon Jan 20, 2:10pm

Mon Jan 20, 2:00pm

Mon Jan 20, 1:10pm

Mon Jan 20, 1:00pm

Mon Jan 20, 12:10pm

Mon Jan 20, 12:00pm

Meta data:

ID: 423e61bf-022c-49fa-b7d2-8b1fdd2df1eb
Link: https://api.weather.gov/products/423e61bf-022c-49fa-b7d2-8b1fdd2df1eb